GW4823 Weather Reports


time (UTC)temp
C
wind
direction
speed
KPH
gust
KPH
rain 1hr
cm
rain 24hr
cm
rain mn
cm
humidity
%
barometer
mb
20260505181015 27 232 17.7 33.8 0.00 0.03 0.03 38 1008.9
20260505180515 27 231 14.5 25.7 0.00 0.03 0.03 36 1008.9
20260505180029 27 206 9.7 24.1 0.00 0.03 0.03 39 1009.1
20260505175513 27 211 9.7 25.7 0.00 0.03 0.03 37 1009.1
20260505175013 27 209 12.9 25.7 0.00 0.03 0.03 37 1009.1
20260505174537 27 171 9.7 25.7 0.00 0.03 0.03 37 1009.0
20260505174015 27 232 12.9 27.4 0.00 0.03 0.03 36 1009.0
20260505173515 27 252 9.7 37.0 0.00 0.03 0.03 39 1009.2
20260505173030 27 243 9.7 37.0 0.00 0.03 0.03 41 1009.4
20260505172514 27 232 11.3 29.0 0.00 0.03 0.03 37 1009.4
20260505172014 27 190 16.1 25.7 0.00 0.03 0.03 37 1009.5
20260505171538 27 206 12.9 27.4 0.00 0.03 0.03 39 1009.6
20260505171014 27 224 12.9 37.0 0.00 0.03 0.03 40 1009.7
20260505170515 27 234 12.9 37.0 0.00 0.03 0.03 40 1009.6
20260505170032 27 284 11.3 35.4 0.00 0.03 0.03 43 1009.6
20260505165511 27 177 16.1 35.4 0.00 0.03 0.03 42 1009.6
20260505165018 27 167 12.9 29.0 0.00 0.03 0.03 42 1009.7
20260505164530 27 159 11.3 25.7 0.00 0.03 0.03 41 1009.6
20260505164013 27 224 9.7 25.7 0.00 0.03 0.03 43 1009.7
20260505163517 27 185 6.4 17.7 0.00 0.03 0.03 46 1009.8
20260505163032 27 190 4.8 17.7 0.00 0.03 0.03 48 1010.0
20260505162514 27 205 4.8 16.1 0.00 0.03 0.03 49 1010.0
20260505162012 26 273 4.8 20.9 0.00 0.03 0.03 45 1010.0
20260505161530 26 271 4.8 20.9 0.00 0.03 0.03 48 1010.0
20260505161015 26 290 8.0 22.5 0.00 0.03 0.03 44 1010.0
20260505160518 26 269 9.7 24.1 0.00 0.03 0.03 44 1010.1
20260505153040 26 300 3.2 12.9 0.00 0.03 0.03 48 1010.1
20260505152514 26 238 3.2 17.7 0.00 0.03 0.03 47 1010.2
20260505152014 25 277 8.0 17.7 0.00 0.03 0.03 47 1010.2
20260505151530 25 198 6.4 17.7 0.00 0.03 0.03 47 1010.2
20260505151016 25 192 9.7 17.7 0.00 0.03 0.03 46 1010.2
20260505150519 25 276 1.6 12.9 0.00 0.03 0.03 50 1010.2
20260505140515 22 194 4.8 16.1 0.00 0.03 0.03 53 1010.9
20260505125016 18 225 3.2 9.7 0.00 0.03 0.03 71 1011.6
20260505124536 18 219 3.2 9.7 0.00 0.03 0.03 73 1011.5
20260505124016 17 184 1.6 9.7 0.00 0.03 0.03 73 1011.4
20260505123514 17 215 1.6 9.7 0.00 0.03 0.03 73 1011.4
20260505123046 16 188 1.6 8.0 0.00 0.03 0.03 74 1011.3
20260505122515 16 173 0.0 8.0 0.00 0.03 0.03 79 1011.3
20260505122018 16 204 1.6 6.4 0.00 0.03 0.03 85 1011.3
20260505121532 15 216 3.2 6.4 0.00 0.03 0.03 83 1011.3
20260505121015 15 0 0.0 0.0 0.00 0.03 0.03 88 1011.0
20260505120514 14 0 0.0 0.0 0.00 0.03 0.03 91 1011.1
20260505120034 13 0 0.0 1.6 0.00 0.03 0.03 95 1011.0
20260505115514 13 0 0.0 1.6 0.00 0.03 0.03 96 1010.8
20260505115012 12 0 0.0 1.6 0.00 0.03 0.03 96 1010.9
20260505114532 12 45 0.0 0.0 0.00 0.03 0.03 96 1011.1
20260505114012 12 0 0.0 3.2 0.00 0.03 0.03 96 1011.0
20260505113515 11 0 0.0 3.2 0.00 0.03 0.03 96 1010.9
20260505113032 11 0 0.0 0.0 0.00 0.03 0.03 97 1010.9
20260505112519 11 0 0.0 1.6 0.00 0.03 0.03 97 1010.9
20260505112013 10 0 0.0 1.6 0.00 0.03 0.03 96 1010.9
20260505111535 10 0 0.0 0.0 0.00 0.03 0.03 96 1010.7
20260505111016 10 0 0.0 0.0 0.00 0.03 0.03 95 1010.7
20260505110515 10 0 0.0 0.0 0.00 0.03 0.03 95 1010.8
20260505102011 9 0 0.0 0.0 0.00 0.03 0.03 93 1010.5
20260505101532 10 0 0.0 0.0 0.00 0.03 0.03 93 1010.3
20260505101011 10 0 0.0 0.0 0.00 0.03 0.03 93 1010.4
20260505100515 10 0 0.0 0.0 0.00 0.03 0.03 92 1010.2
20260505100034 10 0 0.0 0.0 0.00 0.03 0.03 92 1010.3
20260505095520 10 0 0.0 0.0 0.00 0.03 0.03 92 1010.2
20260505095016 10 0 0.0 0.0 0.00 0.03 0.03 93 1010.2
20260505094531 10 0 0.0 0.0 0.03 0.03 0.03 92 1010.2
20260505094015 10 0 0.0 1.6 0.03 0.03 0.03 92 1010.3
20260505093513 10 0 0.0 3.2 0.03 0.03 0.03 91 1010.1
20260505093030 10 0 0.0 3.2 0.03 0.03 0.03 92 1010.2
20260505092512 10 45 0.0 3.2 0.03 0.03 0.03 91 1010.2
20260505092014 11 45 0.0 1.6 0.03 0.03 0.03 91 1010.2
20260505091530 11 0 0.0 3.2 0.03 0.03 0.03 91 1010.2
20260505091014 11 0 0.0 3.2 0.03 0.03 0.03 90 1010.2
20260505090515 11 45 0.0 4.8 0.03 0.03 0.03 90 1010.2
20260505090035 11 0 0.0 4.8 0.03 0.03 0.03 91 1010.2
20260505085515 11 45 1.6 4.8 0.03 0.03 0.03 90 1010.1
20260505085015 11 0 0.0 1.6 0.03 0.03 0.03 88 1010.1
20260505084536 11 0 0.0 3.2 0.00 0.00 0.00 90 1010.1
20260505084015 11 0 0.0 3.2 0.00 0.00 0.00 89 1010.0
20260505083517 11 0 0.0 0.0 0.00 0.00 0.00 89 1009.9
20260505083035 11 0 0.0 0.0 0.00 0.00 0.00 89 1010.0
20260505082517 11 0 0.0 1.6 0.00 0.00 0.00 88 1009.9
20260505082014 11 0 0.0 3.2 0.00 0.00 0.00 88 1009.9
20260505081532 11 0 0.0 3.2 0.00 0.00 0.00 88 1009.9
20260505081017 11 110 0.0 1.6 0.00 0.00 0.00 89 1009.9
20260505080519 11 0 0.0 3.2 0.00 0.00 0.00 89 1010.0
20260505080030 11 0 0.0 3.2 0.00 0.00 0.00 88 1010.1
20260505075513 11 0 0.0 3.2 0.00 0.00 0.00 88 1010.1
20260505075136 11 0 0.0 4.8 0.00 0.00 0.00 88 1009.9
20260505074534 11 0 0.0 4.8 0.00 0.00 0.00 89 1010.0
20260505074014 11 110 0.0 4.8 0.00 0.00 0.00 89 1010.0
20260505073515 11 0 0.0 0.0 0.00 0.00 0.00 88 1010.2
20260505073034 11 0 0.0 0.0 0.00 0.00 0.00 89 1010.2
20260505072514 11 0 0.0 0.0 0.00 0.00 0.00 90 1010.1
20260505072015 10 0 0.0 0.0 0.00 0.00 0.00 88 1010.2
20260505071532 10 0 0.0 0.0 0.00 0.00 0.00 89 1010.2
20260505071014 11 0 0.0 0.0 0.00 0.00 0.00 89 1010.2
20260505070512 11 0 0.0 0.0 0.00 0.00 0.00 90 1010.3
20260505070031 10 0 0.0 0.0 0.00 0.00 0.00 91 1010.2
20260505065515 10 0 0.0 1.6 0.00 0.00 0.00 89 1010.2
20260505065014 10 0 0.0 1.6 0.00 0.00 0.00 89 1010.1
20260505064534 10 110 0.0 1.6 0.00 0.00 0.00 90 1010.1
20260505064013 10 0 0.0 3.2 0.00 0.00 0.00 89 1010.2
20260505063511 9 0 0.0 3.2 0.00 0.00 0.00 89 1010.2
20260505063029 9 0 0.0 3.2 0.00 0.00 0.00 88 1010.3
20260505062512 8 0 0.0 3.2 0.00 0.00 0.00 88 1010.2
20260505062012 8 0 0.0 3.2 0.00 0.00 0.00 88 1010.2
20260505061532 8 0 0.0 0.0 0.00 0.00 0.00 88 1010.3
20260505061014 8 0 0.0 0.0 0.00 0.00 0.00 87 1010.3
20260505060513 8 0 0.0 1.6 0.00 0.00 0.00 87 1010.2
20260505060030 8 0 0.0 1.6 0.00 0.00 0.00 87 1010.2
20260505055517 8 0 0.0 0.0 0.00 0.00 0.00 86 1010.2
20260505055014 8 0 0.0 0.0 0.00 0.00 0.00 85 1010.1
20260505054544 8 0 0.0 0.0 0.00 0.00 0.00 86 1010.1
20260505054014 8 0 0.0 0.0 0.00 0.00 0.00 86 1010.2
20260505053518 8 0 0.0 0.0 0.00 0.00 0.00 86 1010.1
20260505053033 8 0 0.0 0.0 0.00 0.00 0.00 86 1010.1
20260505052514 9 0 0.0 1.6 0.00 0.00 0.00 85 1010.1
20260505052014 9 0 0.0 1.6 0.00 0.00 0.00 85 1010.1
20260505051532 9 0 0.0 1.6 0.00 0.00 0.00 85 1010.1
20260505051014 9 0 0.0 3.2 0.00 0.00 0.00 86 1010.1
20260505050512 9 0 0.0 3.2 0.00 0.00 0.00 86 1010.0
20260505041530 10 0 0.0 0.0 0.00 0.00 0.00 84 1010.1
20260505041014 10 0 0.0 0.0 0.00 0.00 0.00 83 1010.1
20260505040514 10 0 0.0 0.0 0.00 0.00 0.00 84 1010.0
20260505040031 10 0 0.0 3.2 0.00 0.00 0.00 83 1010.0
20260505035516 10 0 0.0 3.2 0.00 0.00 0.00 82 1009.9
20260505035016 10 0 0.0 0.0 0.00 0.00 0.00 83 1009.9
20260505034535 10 0 0.0 0.0 0.00 0.00 0.00 81 1009.9
20260505034014 10 0 0.0 0.0 0.00 0.00 0.00 81 1009.9
20260505033514 10 0 0.0 0.0 0.00 0.00 0.00 81 1009.9
20260505033032 10 0 0.0 0.0 0.00 0.00 0.00 81 1010.0
20260505032515 10 0 0.0 0.0 0.00 0.00 0.00 81 1010.0
20260505032014 10 0 0.0 0.0 0.00 0.00 0.00 80 1009.9
20260505031532 10 0 0.0 0.0 0.00 0.00 0.00 80 1009.9
20260505031014 11 0 0.0 1.6 0.00 0.00 0.00 79 1010.0
20260505030515 11 0 0.0 1.6 0.00 0.00 0.00 79 1010.1
20260505030043 11 0 0.0 0.0 0.00 0.00 0.00 79 1010.0
20260505025516 11 0 0.0 1.6 0.00 0.00 0.00 78 1010.0
20260505025016 11 0 0.0 3.2 0.00 0.00 0.00 77 1009.9
20260505024530 11 0 0.0 3.2 0.00 0.00 0.00 77 1009.9
20260505024011 11 0 0.0 3.2 0.00 0.00 0.00 77 1010.0
20260505023511 11 0 0.0 3.2 0.00 0.00 0.00 76 1010.1
20260505023039 11 0 0.0 0.0 0.00 0.00 0.00 75 1010.2
20260505022514 12 0 0.0 1.6 0.00 0.00 0.00 75 1010.2
20260505022014 12 0 0.0 1.6 0.00 0.00 0.00 74 1010.2
20260505021532 12 0 0.0 3.2 0.00 0.00 0.00 73 1010.3
20260505021017 12 110 0.0 3.2 0.00 0.00 0.00 73 1010.2
20260505020515 12 0 0.0 3.2 0.00 0.00 0.00 72 1010.2
20260505020034 12 0 0.0 1.6 0.00 0.00 0.00 73 1010.2
20260505015514 12 0 0.0 1.6 0.00 0.00 0.00 71 1010.2
20260505015012 13 0 0.0 0.0 0.00 0.00 0.00 70 1010.2
20260505014537 13 0 0.0 3.2 0.00 0.00 0.00 69 1010.2
20260505014015 13 0 0.0 3.2 0.00 0.00 0.00 69 1010.1
20260505013514 13 0 0.0 3.2 0.00 0.00 0.00 69 1010.1
20260505013035 13 0 0.0 3.2 0.00 0.00 0.00 68 1010.0
20260505012514 14 0 0.0 3.2 0.00 0.00 0.00 67 1010.0
20260505012014 14 148 0.0 3.2 0.00 0.00 0.00 65 1009.9
20260505011531 15 0 0.0 0.0 0.00 0.00 0.00 63 1010.0
20260505011014 15 0 0.0 0.0 0.00 0.00 0.00 63 1009.9
20260505010511 15 0 0.0 0.0 0.00 0.00 0.00 62 1009.8
20260505010031 16 0 0.0 0.0 0.00 0.00 0.00 61 1009.8
20260505005517 16 0 0.0 1.6 0.00 0.00 0.00 59 1009.8
20260505005015 17 0 0.0 1.6 0.00 0.00 0.00 58 1009.7
20260505004553 17 0 0.0 3.2 0.00 0.00 0.00 56 1009.7
20260505004012 17 0 0.0 3.2 0.00 0.00 0.00 55 1009.7
20260505003513 18 148 0.0 1.6 0.00 0.00 0.00 53 1009.7
20260505003030 18 0 0.0 1.6 0.00 0.00 0.00 49 1009.7
20260505002513 18 148 0.0 4.8 0.00 0.00 0.00 50 1009.7
20260505002011 19 148 0.0 4.8 0.00 0.00 0.00 47 1009.6
20260505001536 19 115 1.6 9.7 0.00 0.00 0.00 45 1009.5
20260505001013 19 0 0.0 9.7 0.00 0.00 0.00 45 1009.6
20260505000518 19 181 3.2 9.7 0.00 0.00 0.00 44 1009.5
20260505000033 20 199 1.6 8.0 0.00 0.00 0.00 44 1009.5
20260504235513 20 171 1.6 9.7 0.00 0.00 0.00 44 1009.5
20260504235012 20 183 3.2 9.7 0.00 0.00 0.00 44 1009.4
20260504234529 20 175 1.6 12.9 0.00 0.00 0.00 44 1009.5
20260504234014 20 165 1.6 14.5 0.00 0.00 0.00 43 1009.4
20260504233514 20 170 4.8 14.5 0.00 0.00 0.00 44 1009.4
20260504233031 20 0 1.6 12.9 0.00 0.00 0.00 43 1009.4
20260504232510 20 97 3.2 14.5 0.00 0.00 0.00 43 1009.3
20260504232012 20 196 3.2 14.5 0.00 0.00 0.00 42 1009.3
20260504231535 20 221 3.2 16.1 0.00 0.00 0.00 42 1009.3
20260504231014 20 169 8.0 16.1 0.00 0.00 0.00 41 1009.2
20260504230517 20 143 4.8 19.3 0.00 0.00 0.00 41 1009.3
20260504230030 21 219 6.4 19.3 0.00 0.00 0.00 41 1009.3
20260504225515 21 238 8.0 20.9 0.00 0.00 0.00 41 1009.2
20260504225013 21 192 6.4 25.7 0.00 0.00 0.00 42 1009.2
20260504224535 21 182 9.7 25.7 0.00 0.00 0.00 41 1009.2
20260504224012 21 234 9.7 19.3 0.00 0.00 0.00 41 1009.1
20260504223513 21 180 8.0 17.7 0.00 0.00 0.00 41 1009.1
20260504223029 21 215 8.0 17.7 0.00 0.00 0.00 40 1009.1
20260504222510 21 150 6.4 19.3 0.00 0.00 0.00 43 1009.1
20260504222012 21 207 6.4 22.5 0.00 0.00 0.00 41 1009.2
20260504221538 21 181 9.7 22.5 0.00 0.00 0.00 42 1009.2
20260504221014 21 188 8.0 19.3 0.00 0.00 0.00 42 1009.2
20260504220514 21 173 8.0 20.9 0.00 0.00 0.00 42 1009.2
20260504220032 21 178 11.3 20.9 0.00 0.00 0.00 42 1009.3
20260504215514 21 134 6.4 19.3 0.00 0.00 0.00 41 1009.2
20260504215015 21 244 6.4 22.5 0.00 0.00 0.00 42 1009.2
20260504214531 21 177 12.9 22.5 0.00 0.00 0.00 40 1009.2
20260504214014 21 242 8.0 27.4 0.00 0.00 0.00 44 1009.2
20260504213514 21 177 11.3 27.4 0.00 0.00 0.00 42 1009.1
20260504213039 21 148 8.0 19.3 0.00 0.00 0.00 44 1009.2
20260504212514 21 221 9.7 19.3 0.00 0.00 0.00 41 1009.2
20260504212016 22 179 9.7 19.3 0.00 0.00 0.00 41 1009.2
20260504211534 22 199 6.4 16.1 0.00 0.00 0.00 43 1009.2
20260504211013 22 215 4.8 14.5 0.00 0.00 0.00 44 1009.1
20260504210513 21 221 6.4 16.1 0.00 0.00 0.00 40 1009.2
20260504210029 22 199 6.4 16.1 0.00 0.00 0.00 39 1009.1
20260504205514 22 215 6.4 16.1 0.00 0.00 0.00 39 1009.1
20260504205017 22 196 4.8 14.5 0.00 0.00 0.00 39 1008.9
20260504204534 22 308 3.2 19.3 0.00 0.00 0.00 38 1008.9
20260504204013 22 200 9.7 20.9 0.00 0.00 0.00 36 1009.1
20260504203515 22 273 8.0 24.1 0.00 0.00 0.00 39 1009.2
20260504203034 22 215 8.0 25.7 0.00 0.00 0.00 41 1009.0
20260504202515 22 192 9.7 25.7 0.00 0.00 0.00 38 1009.1
20260504202014 22 292 6.4 20.9 0.00 0.00 0.00 39 1009.3
20260504201530 22 195 8.0 20.9 0.00 0.00 0.00 40 1009.4
20260504201014 22 154 11.3 19.3 0.00 0.00 0.00 38 1009.4
20260504200512 22 275 9.7 20.9 0.00 0.00 0.00 39 1009.5
20260504200032 22 235 8.0 20.9 0.00 0.00 0.00 39 1009.4
20260504195512 22 202 6.4 25.7 0.00 0.00 0.00 38 1009.6
20260504195011 22 219 8.0 25.7 0.00 0.00 0.00 38 1009.6
20260504194530 22 250 8.0 20.9 0.00 0.00 0.00 40 1009.8
20260504194013 22 234 8.0 20.9 0.00 0.00 0.00 38 1009.7
20260504193513 22 285 6.4 20.9 0.00 0.00 0.00 40 1009.7
20260504193030 22 221 12.9 20.9 0.00 0.00 0.00 38 1009.8
20260504192513 22 296 4.8 25.7 0.00 0.00 0.00 41 1009.7
20260504192014 22 287 8.0 25.7 0.00 0.00 0.00 43 1009.8
20260504191554 22 256 8.0 22.5 0.00 0.00 0.00 41 1009.9
20260504191013 22 189 6.4 20.9 0.00 0.00 0.00 39 1009.9
20260504190512 22 217 9.7 22.5 0.00 0.00 0.00 41 1009.9
20260504190034 22 240 8.0 24.1 0.00 0.00 0.00 41 1010.0
20260504185514 22 219 11.3 24.1 0.00 0.00 0.00 39 1010.2
20260504185014 22 171 3.2 16.1 0.00 0.00 0.00 41 1010.3
20260504184541 22 238 8.0 16.1 0.00 0.00 0.00 40 1010.3
20260504184017 21 221 8.0 17.7 0.00 0.00 0.00 43 1010.5
20260504183515 21 193 6.4 27.4 0.00 0.00 0.00 44 1010.5
20260504183031 21 202 11.3 29.0 0.00 0.00 0.00 43 1010.6
20260504182519 21 0 8.0 29.0 0.00 0.00 0.00 39 1010.6
20260504182014 22 173 8.0 24.1 0.00 0.00 0.00 41 1010.6
20260504181534 21 255 8.0 19.3 0.00 0.00 0.00 40 1010.7